Tracking 23757 objects as of 24-Oct-2021
HD Live streaming from Space Station
objects crossing your sky now

DELTA 1 DEB

Track DELTA 1 DEB now!
10-day predictions


NORAD ID: 9042
Int'l Code: 1975-004DG
Perigee: 720.9 km
Apogee: 810.4 km
Inclination: 97.9 °
Period: 100.0 minutes
Semi major axis: 7136 km
RCS: 0.263 m2 (medium)
Launch date: January 22, 1975
Source: United States (US)
Launch site: AIR FORCE WESTERN TEST RANGE (AFWTR)

Note: This is SATELLITE DEBRIS
aabbcc
Your satellite tracking list
Your tracking list is empty




NASA's NSSDC Master Catalog

Two Line Element Set (TLE):
1 09042U 75004DG  21297.57758731  .00000051  00000-0  28045-4 0  9994
2 09042  97.9419 346.1330 0062705 189.6670 170.3318 14.39994803395351
Source of the keplerian elements: AFSPC